EZY7159 LIMC-LIRN

Flight info

Callsign EZY7159
Flight time 1h 1m
Altitude 37000
Route ROBAS DCT LOGDI DCT EKDIR DCT LOMED DCT GENGI DCT EVULI DCT ERIKA
Aircraft A320/M-SDE3FGHIRWY/LB1

Departure

Time 2026-05-03 21:40
Airport Milan Malpensa International Airport (LIMC)

Arrival

Time 2026-05-03 22:41
Airport Naples International Airport (LIRN)
Time Latitude Longitude Altitude Speed Heading
2026-05-03 21:21 45.64366 8.72374 716 ft 0 kts 79°
2026-05-03 21:30 45.64363 8.72351 718 ft 4 kts 80°
2026-05-03 21:31 45.64359 8.72313 717 ft 4 kts 84°
2026-05-03 21:31 45.64357 8.72275 715 ft 4 kts 95°
2026-05-03 21:31 45.64363 8.72240 715 ft 4 kts 132°
2026-05-03 21:31 45.64372 8.72229 720 ft 0 kts 169°
2026-05-03 21:34 45.64277 8.72255 717 ft 27 kts 169°
2026-05-03 21:34 45.64093 8.72308 719 ft 28 kts 168°
2026-05-03 21:34 45.63949 8.72373 717 ft 16 kts 123°
2026-05-03 21:35 45.63945 8.72539 715 ft 17 kts 114°
2026-05-03 21:35 45.63829 8.72593 718 ft 19 kts 169°
2026-05-03 21:35 45.63688 8.72631 719 ft 22 kts 169°
2026-05-03 21:35 45.63530 8.72675 718 ft 24 kts 169°
2026-05-03 21:36 45.63359 8.72723 719 ft 26 kts 169°
2026-05-03 21:36 45.63176 8.72775 720 ft 28 kts 169°
2026-05-03 21:36 45.62981 8.72828 718 ft 29 kts 169°
2026-05-03 21:36 45.62780 8.72885 718 ft 27 kts 169°
2026-05-03 21:37 45.62591 8.72938 718 ft 28 kts 169°
2026-05-03 21:37 45.62393 8.72993 716 ft 29 kts 169°
2026-05-03 21:37 45.62194 8.73048 716 ft 29 kts 169°
2026-05-03 21:37 45.61997 8.73103 716 ft 29 kts 169°
2026-05-03 21:38 45.61833 8.73149 716 ft 14 kts 168°
2026-05-03 21:38 45.61740 8.73219 716 ft 17 kts 127°
2026-05-03 21:38 45.61669 8.73367 716 ft 19 kts 124°
2026-05-03 21:38 45.61595 8.73541 718 ft 22 kts 109°
2026-05-03 21:39 45.61638 8.73731 715 ft 16 kts 14°
2026-05-03 21:39 45.61669 8.73724 718 ft 0 kts 350°
2026-05-03 21:39 45.61809 8.73686 719 ft 58 kts 349°
2026-05-03 21:39 45.62448 8.73510 719 ft 125 kts 349°
2026-05-03 21:40 45.63474 8.73222 741 ft 171 kts 347°
2026-05-03 21:40 45.64632 8.73035 1360 ft 168 kts
2026-05-03 21:40 45.65713 8.73655 1920 ft 173 kts 44°
2026-05-03 21:40 45.66322 8.75197 2237 ft 190 kts 75°
2026-05-03 21:41 45.66893 8.76992 2532 ft 210 kts 45°
2026-05-03 21:41 45.68015 8.78387 3128 ft 214 kts 38°
2026-05-03 21:41 45.69203 8.79688 3856 ft 216 kts 37°
2026-05-03 21:41 45.70404 8.80991 4578 ft 217 kts 38°
2026-05-03 21:42 45.71594 8.82333 5285 ft 218 kts 44°
2026-05-03 21:42 45.72412 8.84142 5912 ft 219 kts 77°
2026-05-03 21:42 45.72445 8.86332 6359 ft 230 kts 110°
2026-05-03 21:42 45.71640 8.88342 6880 ft 237 kts 128°
2026-05-03 21:43 45.70652 8.90255 7590 ft 241 kts 128°
2026-05-03 21:43 45.69659 8.92195 8354 ft 243 kts 128°
2026-05-03 21:43 45.68644 8.94182 9145 ft 245 kts 129°
2026-05-03 21:43 45.67635 8.96158 9934 ft 247 kts 129°
2026-05-03 21:44 45.66630 8.98131 10629 ft 250 kts 129°
2026-05-03 21:44 45.65589 9.00186 11323 ft 254 kts 130°
2026-05-03 21:44 45.64535 9.02237 11994 ft 257 kts 134°
2026-05-03 21:44 45.63307 9.04210 12305 ft 277 kts 136°
2026-05-03 21:45 45.61954 9.06328 12501 ft 300 kts 136°
2026-05-03 21:45 45.60487 9.08615 12680 ft 324 kts 136°
2026-05-03 21:45 45.58915 9.11073 12851 ft 345 kts 135°
2026-05-03 21:45 45.57278 9.13645 13378 ft 354 kts 135°
2026-05-03 21:46 45.55614 9.16268 14018 ft 359 kts 135°
2026-05-03 21:46 45.53929 9.18920 14607 ft 363 kts 135°
2026-05-03 21:46 45.52219 9.21603 15195 ft 367 kts 135°
2026-05-03 21:46 45.50490 9.24312 15774 ft 372 kts 135°
2026-05-03 21:47 45.48737 9.27049 16353 ft 376 kts 135°
2026-05-03 21:47 45.46963 9.29814 16918 ft 380 kts 135°
2026-05-03 21:47 45.45169 9.32613 17485 ft 385 kts 135°
2026-05-03 21:47 45.43354 9.35448 18035 ft 389 kts 135°
2026-05-03 21:48 45.41523 9.38310 18635 ft 393 kts 135°
2026-05-03 21:48 45.39667 9.41200 19127 ft 397 kts 135°
2026-05-03 21:48 45.37794 9.44114 19618 ft 401 kts 135°
2026-05-03 21:48 45.35900 9.47056 20107 ft 405 kts 135°
2026-05-03 21:49 45.33990 9.50022 20593 ft 409 kts 135°
2026-05-03 21:49 45.32057 9.53019 21075 ft 413 kts 135°
2026-05-03 21:49 45.30101 9.56046 21536 ft 417 kts 135°
2026-05-03 21:49 45.28129 9.59094 21999 ft 421 kts 135°
2026-05-03 21:50 45.26785 9.61169 22296 ft 424 kts 135°
2026-05-03 21:50 45.24783 9.64258 22739 ft 427 kts 135°
2026-05-03 21:50 45.22757 9.67377 23165 ft 431 kts 134°
2026-05-03 21:50 45.20716 9.70511 23608 ft 434 kts 135°
2026-05-03 21:51 45.18497 9.73415 23983 ft 435 kts 144°
2026-05-03 21:51 45.16029 9.75903 24358 ft 436 kts 148°
2026-05-03 21:51 45.13533 9.78357 24736 ft 438 kts 148°
2026-05-03 21:51 45.11024 9.80824 25116 ft 440 kts 148°
2026-05-03 21:52 45.08508 9.83298 25498 ft 442 kts 148°
2026-05-03 21:52 45.05978 9.85789 25859 ft 443 kts 148°
2026-05-03 21:52 45.03442 9.88284 26227 ft 445 kts 148°
2026-05-03 21:52 45.00894 9.90785 26598 ft 447 kts 148°
2026-05-03 21:53 44.98335 9.93291 26954 ft 448 kts 148°
2026-05-03 21:53 44.95768 9.95802 27296 ft 450 kts 148°
2026-05-03 21:53 44.93184 9.98328 27619 ft 452 kts 148°
2026-05-03 21:53 44.90594 10.00856 27943 ft 454 kts 148°
2026-05-03 21:54 44.87991 10.03391 28253 ft 456 kts 148°
2026-05-03 21:54 44.85378 10.05932 28566 ft 457 kts 148°
2026-05-03 21:54 44.82757 10.08487 28862 ft 459 kts 148°
2026-05-03 21:54 44.80125 10.11057 29151 ft 461 kts 148°
2026-05-03 21:55 44.77483 10.13632 29435 ft 462 kts 148°
2026-05-03 21:55 44.74830 10.16200 29703 ft 464 kts 148°
2026-05-03 21:55 44.72167 10.18775 29929 ft 466 kts 148°
2026-05-03 21:55 44.69490 10.21381 30164 ft 468 kts 148°
2026-05-03 21:56 44.66840 10.24040 30462 ft 468 kts 147°
2026-05-03 21:56 44.64211 10.26734 30750 ft 468 kts 146°
2026-05-03 21:56 44.61590 10.29446 31033 ft 468 kts 146°
2026-05-03 21:56 44.58973 10.32155 31385 ft 467 kts 147°
2026-05-03 21:57 44.56350 10.34857 31663 ft 467 kts 147°
2026-05-03 21:57 44.53726 10.37539 31950 ft 467 kts 147°
2026-05-03 21:57 44.51098 10.40202 32236 ft 467 kts 147°
2026-05-03 21:57 44.48461 10.42861 32526 ft 467 kts 147°
2026-05-03 21:58 44.45790 10.45551 32815 ft 467 kts 147°
2026-05-03 21:58 44.43156 10.48203 33109 ft 466 kts 147°
2026-05-03 21:58 44.40528 10.50850 33396 ft 466 kts 147°
2026-05-03 21:58 44.37903 10.53496 33670 ft 465 kts 147°
2026-05-03 21:59 44.35276 10.56144 33965 ft 465 kts 148°
2026-05-03 21:59 44.32655 10.58778 34234 ft 465 kts 147°
2026-05-03 21:59 44.30024 10.61413 34436 ft 465 kts 147°
2026-05-03 21:59 44.27397 10.64046 34671 ft 466 kts 147°
2026-05-03 22:00 44.24765 10.66686 34927 ft 465 kts 147°
2026-05-03 22:00 44.22147 10.69331 35162 ft 466 kts 145°
2026-05-03 22:00 44.19721 10.72337 35395 ft 469 kts 136°
2026-05-03 22:00 44.17586 10.75780 35588 ft 470 kts 132°
2026-05-03 22:01 44.15490 10.79280 35791 ft 470 kts 132°
2026-05-03 22:01 44.13392 10.82767 36009 ft 470 kts 133°
2026-05-03 22:01 44.11292 10.86241 36199 ft 469 kts 133°
2026-05-03 22:01 44.09184 10.89713 36350 ft 469 kts 133°
2026-05-03 22:02 44.07074 10.93175 36477 ft 469 kts 133°
2026-05-03 22:02 44.04967 10.96629 36647 ft 469 kts 133°
2026-05-03 22:02 44.02836 11.00073 36832 ft 468 kts 136°
2026-05-03 22:02 44.00516 11.03218 37001 ft 466 kts 140°
2026-05-03 22:03 43.98155 11.06308 37146 ft 466 kts 140°
2026-05-03 22:03 43.95791 11.09394 37174 ft 467 kts 140°
2026-05-03 22:03 43.91058 11.15553 37167 ft 466 kts 140°
2026-05-03 22:04 43.86320 11.21693 37154 ft 466 kts 140°
2026-05-03 22:04 43.81579 11.27830 37172 ft 467 kts 140°
2026-05-03 22:05 43.76829 11.33970 37165 ft 468 kts 140°
2026-05-03 22:05 43.72061 11.40113 37173 ft 469 kts 140°
2026-05-03 22:06 43.67255 11.46297 37179 ft 469 kts 140°
2026-05-03 22:06 43.62477 11.52433 37178 ft 469 kts 140°
2026-05-03 22:07 43.57690 11.58565 37182 ft 470 kts 140°
2026-05-03 22:07 43.52897 11.64686 37182 ft 470 kts 140°
2026-05-03 22:08 43.48102 11.70804 37182 ft 470 kts 139°
2026-05-03 22:08 43.43295 11.76924 37190 ft 471 kts 139°
2026-05-03 22:09 43.38472 11.83038 37173 ft 471 kts 140°
2026-05-03 22:10 43.31237 11.92190 37196 ft 472 kts 140°
2026-05-03 22:10 43.26403 11.98295 37202 ft 472 kts 140°
2026-05-03 22:11 43.21570 12.04385 37202 ft 472 kts 140°
2026-05-03 22:11 43.16725 12.10472 37183 ft 473 kts 139°
2026-05-03 22:12 43.11865 12.16556 37171 ft 474 kts 139°
2026-05-03 22:12 43.06998 12.22653 37172 ft 474 kts 139°
2026-05-03 22:13 43.02122 12.28742 37182 ft 475 kts 139°
2026-05-03 22:13 42.97233 12.34814 37184 ft 475 kts 139°
2026-05-03 22:14 42.92352 12.40881 37187 ft 475 kts 139°
2026-05-03 22:14 42.87458 12.46955 37198 ft 476 kts 139°
2026-05-03 22:15 42.82551 12.53016 37197 ft 476 kts 139°
2026-05-03 22:15 42.77603 12.59118 37190 ft 477 kts 139°
2026-05-03 22:16 42.72682 12.65179 37196 ft 477 kts 139°
2026-05-03 22:16 42.67757 12.71239 37206 ft 477 kts 139°
2026-05-03 22:17 42.62826 12.77281 37221 ft 477 kts 139°
2026-05-03 22:17 42.57884 12.83315 37208 ft 478 kts 139°
2026-05-03 22:18 42.52934 12.89356 37213 ft 479 kts 139°
2026-05-03 22:18 42.47973 12.95399 37203 ft 480 kts 139°
2026-05-03 22:19 42.43002 13.01429 37210 ft 480 kts 139°
2026-05-03 22:19 42.38035 13.07466 37215 ft 480 kts 138°
2026-05-03 22:20 42.33175 13.13656 37229 ft 480 kts 136°
2026-05-03 22:20 42.28363 13.19928 37217 ft 481 kts 136°
2026-05-03 22:21 42.23516 13.26163 37198 ft 482 kts 137°
2026-05-03 22:21 42.18626 13.32367 37076 ft 484 kts 137°
2026-05-03 22:21 42.16172 13.35471 36648 ft 484 kts 137°
2026-05-03 22:22 42.13722 13.38573 36010 ft 483 kts 137°
2026-05-03 22:22 42.11260 13.41692 35162 ft 488 kts 137°
2026-05-03 22:22 42.08776 13.44838 34326 ft 493 kts 137°
2026-05-03 22:22 42.06266 13.48022 33331 ft 499 kts 137°
2026-05-03 22:23 42.04557 13.50189 32698 ft 501 kts 136°
2026-05-03 22:23 42.02010 13.53411 31769 ft 504 kts 136°
2026-05-03 22:23 41.99464 13.56619 31261 ft 498 kts 136°
2026-05-03 22:23 41.96939 13.59795 30624 ft 496 kts 136°
2026-05-03 22:24 41.94430 13.62950 29955 ft 493 kts 136°
2026-05-03 22:24 41.91933 13.66090 29338 ft 489 kts 136°
2026-05-03 22:24 41.89464 13.69192 28724 ft 484 kts 136°
2026-05-03 22:24 41.87014 13.72267 28124 ft 480 kts 136°
2026-05-03 22:25 41.84586 13.75308 27529 ft 475 kts 136°
2026-05-03 22:25 41.82179 13.78319 26936 ft 471 kts 136°
2026-05-03 22:25 41.79799 13.81293 26345 ft 466 kts 137°
2026-05-03 22:25 41.77439 13.84242 25777 ft 462 kts 137°
2026-05-03 22:26 41.75099 13.87166 25218 ft 458 kts 136°
2026-05-03 22:26 41.72775 13.90066 24662 ft 454 kts 136°
2026-05-03 22:26 41.70476 13.92931 24152 ft 450 kts 137°
2026-05-03 22:26 41.68203 13.95755 23718 ft 443 kts 137°
2026-05-03 22:27 41.65944 13.98557 23097 ft 440 kts 137°
2026-05-03 22:27 41.63715 14.01324 22550 ft 435 kts 137°
2026-05-03 22:27 41.61534 14.04077 22078 ft 429 kts 135°
2026-05-03 22:27 41.59457 14.06912 21614 ft 424 kts 133°
2026-05-03 22:28 41.57449 14.09836 21119 ft 419 kts 131°
2026-05-03 22:28 41.55518 14.12739 20638 ft 416 kts 131°
2026-05-03 22:28 41.53611 14.15622 20161 ft 413 kts 131°
2026-05-03 22:28 41.51708 14.18464 19662 ft 410 kts 131°
2026-05-03 22:29 41.49793 14.21281 19171 ft 408 kts 131°
2026-05-03 22:29 41.47875 14.24064 18694 ft 407 kts 131°
2026-05-03 22:29 41.45980 14.26790 18554 ft 394 kts 131°
2026-05-03 22:29 41.44163 14.29394 18419 ft 371 kts 131°
2026-05-03 22:30 41.42447 14.31827 18279 ft 349 kts 134°
2026-05-03 22:30 41.40627 14.33844 17817 ft 338 kts 142°
2026-05-03 22:30 41.38691 14.35717 16560 ft 351 kts 143°
2026-05-03 22:30 41.36662 14.37642 15291 ft 364 kts 143°
2026-05-03 22:31 41.34562 14.39615 14058 ft 375 kts 144°
2026-05-03 22:31 41.32424 14.41617 13002 ft 374 kts 144°
2026-05-03 22:31 41.30308 14.43596 12065 ft 369 kts 143°
2026-05-03 22:31 41.28226 14.45545 11171 ft 364 kts 143°
2026-05-03 22:32 41.26179 14.47466 10495 ft 353 kts 143°
2026-05-03 22:32 41.24255 14.49278 10350 ft 326 kts 143°
2026-05-03 22:32 41.22473 14.50956 10207 ft 303 kts 143°
2026-05-03 22:32 41.20813 14.52523 10081 ft 282 kts 142°
2026-05-03 22:33 41.19267 14.53984 9939 ft 268 kts 142°
2026-05-03 22:33 41.17757 14.55407 9683 ft 266 kts 143°
2026-05-03 22:33 41.16253 14.56819 9353 ft 264 kts 143°
2026-05-03 22:33 41.14760 14.58224 9014 ft 262 kts 143°
2026-05-03 22:34 41.13281 14.59612 8682 ft 260 kts 143°
2026-05-03 22:34 41.11806 14.60992 8345 ft 259 kts 143°
2026-05-03 22:34 41.10308 14.62307 8014 ft 258 kts 153°
2026-05-03 22:34 41.08605 14.63081 7454 ft 266 kts 171°
2026-05-03 22:35 41.06711 14.63086 6759 ft 277 kts 192°
2026-05-03 22:35 41.04954 14.62231 6402 ft 262 kts 212°
2026-05-03 22:35 41.03576 14.60772 6074 ft 248 kts 230°
2026-05-03 22:35 41.02604 14.58944 5730 ft 240 kts 239°
2026-05-03 22:36 41.01734 14.57077 5382 ft 236 kts 240°
2026-05-03 22:36 41.00890 14.55265 5047 ft 228 kts 239°
2026-05-03 22:36 41.00069 14.53509 4716 ft 223 kts 239°
2026-05-03 22:36 40.99260 14.51777 4376 ft 217 kts 239°
2026-05-03 22:37 40.98485 14.50123 4065 ft 207 kts 239°
2026-05-03 22:37 40.97747 14.48547 3805 ft 195 kts 239°
2026-05-03 22:37 40.97053 14.47065 3494 ft 184 kts 239°
2026-05-03 22:37 40.96393 14.45657 3224 ft 170 kts 240°
2026-05-03 22:38 40.95802 14.44398 2976 ft 154 kts 240°
2026-05-03 22:38 40.95256 14.43233 2766 ft 146 kts 240°
2026-05-03 22:38 40.94729 14.42110 2546 ft 142 kts 240°
2026-05-03 22:38 40.94209 14.41001 2342 ft 142 kts 239°
2026-05-03 22:39 40.93693 14.39901 2130 ft 140 kts 239°
2026-05-03 22:39 40.93179 14.38808 1918 ft 140 kts 240°
2026-05-03 22:39 40.92664 14.37715 1710 ft 141 kts 239°
2026-05-03 22:39 40.92148 14.36611 1519 ft 142 kts 239°
2026-05-03 22:40 40.91628 14.35509 1351 ft 140 kts 239°
2026-05-03 22:40 40.91114 14.34412 1154 ft 141 kts 238°
2026-05-03 22:40 40.90595 14.33311 875 ft 140 kts 238°
2026-05-03 22:40 40.90083 14.32225 655 ft 139 kts 238°
2026-05-03 22:41 40.89572 14.31140 452 ft 139 kts 239°
2026-05-03 22:41 40.89062 14.30053 244 ft 137 kts 238°
2026-05-03 22:41 40.88679 14.29236 263 ft 60 kts 238°
2026-05-03 22:41 40.88563 14.28989 269 ft 27 kts 238°
2026-05-03 22:42 40.88462 14.28777 274 ft 27 kts 238°
2026-05-03 22:42 40.88367 14.28582 279 ft 17 kts 232°
2026-05-03 22:42 40.88280 14.28469 282 ft 18 kts 219°
2026-05-03 22:42 40.88180 14.28386 285 ft 14 kts 208°
2026-05-03 22:43 40.88089 14.28324 287 ft 14 kts 211°
2026-05-03 22:43 40.88053 14.28209 293 ft 14 kts 242°
2026-05-03 22:43 40.87981 14.28119 294 ft 15 kts 203°
2026-05-03 22:43 40.87917 14.28052 297 ft 10 kts 230°
2026-05-03 22:44 40.87883 14.28044 299 ft 4 kts 152°
2026-05-03 22:44 40.87864 14.28062 296 ft 3 kts 142°
2026-05-03 22:44 40.87850 14.28076 297 ft 2 kts 141°
2026-05-03 22:44 40.87842 14.28085 295 ft 1 kts 141°
2026-05-03 22:45 40.87840 14.28088 295 ft 0 kts 141°